SL-8 R/B

Satellite information

Favourite Embed

Satellite Type and Status

ROCKET BODYIN ORBIT

Key statistics

Satellite SL-8 R/B at a glance.

Uptime

15186

Days in orbit

Revolutions

≈ 13.8

Per day

Orbit

LEO

Low Earth Orbit

Inclination

82.9

Latest

Satellite identification and parameters

Extended collection of information and parameters for SL-8 R/B.

Object identification

Identified? True

Debris? False

Object name: SL-8 R/B

International designator: 1984-046B

Object number (NORAD): 14974

Object ID (CCSDS): 14974

Country: COMMONWEALTH OF INDEPENDENT STATES (CIS)

Current information (Y/N): Y

RCS size: LARGE

Orbital parameters

Period: 104.563 minutes

Inclination: 82.9363 deg

SMA: 7352.115 km

Apoapsis: 1006.346 km

Periapsis: 941.614 km

RAAN: 354.8679 deg

Eccentricy: 0.00440227

Argument of periapsis: 322.9152 deg

Mean anomaly: 149.3912 deg

Mean motion: 13.77159657 rev/day

Mean motion (dot): 0.00000027 rev/day2

B* drag term: 0.000012332313 1/REarth

Two-line elements (TLE)

Creation date: Dec. 14, 2025, 3:07 a.m.

Reference frame: TEME

Reference center: EARTH

Epoch: Dec. 13, 2025, 12:20 p.m. UTC

TLE line 0: 0 SL-8 R/B

TLE line 1: 1 14974U 84046B 25347.51419354 .00000027 00000-0 12332-4 0 9994

TLE line 2: 2 14974 82.9363 354.8679 0044023 322.9152 149.3912 13.77159657 88700

Live tracking on map

Real-time ground track for satellite SL-8 R/B.

In-orbit conjunctions

A list of the most updated potential collisions computed for object SL-8 R/B.

Target Orbit TCA Probability of collision Miss distance Type
METEOR 2-8 LEO 2025-04-10 08:56:25 0.004558347 104.0 (m) PAYLOAD

Associated space launch

Civilian navigation satellite equivalent to the purely military Parus

SL-8 R/B was lifted into orbit during the mission ‘Kosmos-3M | Tsikada 11’, on board a Kosmos-3M space rocket.

The launch took place on May 17, 1984, 2:43 p.m. from 132/1 (132L).

For more information about the launch, click the button.

Launch to space Kosmos-3M | Tsikada 11
Kosmos-3M | Tsikada 11

Agency: N/A

Status: Launch Successful

Launch date: May 17, 1984, 2:43 p.m. UTC

Rocket: Kosmos-3M

Launch pad: 132/1 (132L)

Location: Plesetsk Cosmodrome, Russian Federation

...

Latest news about this satellite

There are no fresh news available about this satellite. Check back as we update our databases every day.


Newsletter sign-up

Weekly statistics, charts and insights to help you stay on top of the space industry.